JST811 YBBN-YSSY

Flight info

Callsign JST811
Flight time 1h 11m
Altitude 36000
Route BN H91 IGDAM H652 BOREE
Aircraft A21N/M-SDE2E3FGHIRWXY/LB1

Departure

Time 2026-05-06 23:26
Airport Brisbane International Airport (YBBN)

Arrival

Time 2026-05-07 00:38
Airport Sydney Kingsford Smith International Airport (YSSY)
Time Latitude Longitude Altitude Speed Heading
2026-05-06 23:08 -27.38650 153.12242 27 ft 0 kts 307°
2026-05-06 23:18 -27.38650 153.12243 27 ft 2 kts 306°
2026-05-06 23:19 -27.38660 153.12257 27 ft 2 kts 306°
2026-05-06 23:19 -27.38669 153.12272 27 ft 2 kts 308°
2026-05-06 23:19 -27.38681 153.12282 27 ft 2 kts 359°
2026-05-06 23:19 -27.38696 153.12277 27 ft 2 kts 27°
2026-05-06 23:20 -27.38703 153.12273 27 ft 0 kts 27°
2026-05-06 23:21 -27.38701 153.12274 27 ft 2 kts 27°
2026-05-06 23:22 -27.38683 153.12287 27 ft 4 kts 46°
2026-05-06 23:22 -27.38681 153.12331 27 ft 7 kts 100°
2026-05-06 23:22 -27.38651 153.12387 27 ft 10 kts 31°
2026-05-06 23:22 -27.38579 153.12429 27 ft 13 kts 27°
2026-05-06 23:23 -27.38494 153.12478 27 ft 15 kts 27°
2026-05-06 23:23 -27.38396 153.12535 27 ft 17 kts 26°
2026-05-06 23:23 -27.38286 153.12597 27 ft 19 kts 26°
2026-05-06 23:23 -27.38164 153.12666 27 ft 21 kts 27°
2026-05-06 23:24 -27.38057 153.12728 27 ft 13 kts 27°
2026-05-06 23:24 -27.37994 153.12779 27 ft 7 kts 70°
2026-05-06 23:24 -27.38004 153.12841 27 ft 9 kts 115°
2026-05-06 23:24 -27.38036 153.12911 27 ft 7 kts 117°
2026-05-06 23:25 -27.38060 153.12965 26 ft 9 kts 117°
2026-05-06 23:25 -27.38094 153.13036 27 ft 12 kts 127°
2026-05-06 23:25 -27.38174 153.13028 27 ft 14 kts 206°
2026-05-06 23:25 -27.38406 153.12895 28 ft 79 kts 207°
2026-05-06 23:26 -27.39148 153.12465 27 ft 157 kts 207°
2026-05-06 23:26 -27.40173 153.11884 675 ft 165 kts 209°
2026-05-06 23:26 -27.41208 153.11296 1515 ft 175 kts 210°
2026-05-06 23:26 -27.42396 153.10711 2218 ft 197 kts 195°
2026-05-06 23:27 -27.43804 153.10935 2827 ft 226 kts 155°
2026-05-06 23:27 -27.45196 153.11930 3705 ft 237 kts 149°
2026-05-06 23:27 -27.46603 153.12921 4731 ft 240 kts 152°
2026-05-06 23:27 -27.48046 153.13853 5723 ft 244 kts 153°
2026-05-06 23:28 -27.49600 153.14632 6711 ft 245 kts 170°
2026-05-06 23:28 -27.51333 153.14644 7347 ft 260 kts 193°
2026-05-06 23:28 -27.53145 153.14194 7923 ft 278 kts 196°
2026-05-06 23:28 -27.55076 153.13676 8778 ft 286 kts 197°
2026-05-06 23:29 -27.56962 153.13014 9715 ft 289 kts 202°
2026-05-06 23:29 -27.58877 153.12245 10434 ft 304 kts 203°
2026-05-06 23:29 -27.60948 153.11415 10802 ft 329 kts 202°
2026-05-06 23:29 -27.63218 153.10597 11185 ft 354 kts 200°
2026-05-06 23:30 -27.65623 153.09792 11904 ft 365 kts 200°
2026-05-06 23:30 -27.68080 153.08976 12844 ft 372 kts 200°
2026-05-06 23:30 -27.70590 153.08145 13953 ft 378 kts 201°
2026-05-06 23:30 -27.73123 153.07298 14915 ft 382 kts 202°
2026-05-06 23:31 -27.75679 153.06441 15697 ft 386 kts 202°
2026-05-06 23:31 -27.78266 153.05575 16432 ft 389 kts 202°
2026-05-06 23:31 -27.80875 153.04702 17134 ft 394 kts 202°
2026-05-06 23:31 -27.83465 153.03677 17823 ft 395 kts 207°
2026-05-06 23:32 -27.86048 153.02552 18485 ft 400 kts 207°
2026-05-06 23:32 -27.88651 153.01413 19101 ft 403 kts 207°
2026-05-06 23:32 -27.91274 153.00264 19748 ft 405 kts 208°
2026-05-06 23:32 -27.93905 152.99109 20387 ft 408 kts 208°
2026-05-06 23:33 -27.96564 152.97941 21039 ft 410 kts 208°
2026-05-06 23:33 -27.99201 152.96786 21698 ft 412 kts 208°
2026-05-06 23:33 -28.01880 152.95610 22358 ft 415 kts 209°
2026-05-06 23:33 -28.04578 152.94425 23007 ft 417 kts 209°
2026-05-06 23:34 -28.07293 152.93229 23641 ft 420 kts 210°
2026-05-06 23:34 -28.09960 152.92055 24146 ft 422 kts 210°
2026-05-06 23:34 -28.12712 152.90835 24616 ft 426 kts 210°
2026-05-06 23:34 -28.15485 152.89600 25052 ft 430 kts 211°
2026-05-06 23:35 -28.18284 152.88353 25498 ft 434 kts 211°
2026-05-06 23:35 -28.21110 152.87095 25936 ft 437 kts 211°
2026-05-06 23:35 -28.23950 152.85831 26392 ft 441 kts 211°
2026-05-06 23:35 -28.26817 152.84554 26808 ft 444 kts 212°
2026-05-06 23:36 -28.29711 152.83265 27223 ft 448 kts 212°
2026-05-06 23:36 -28.32616 152.81971 27654 ft 451 kts 212°
2026-05-06 23:36 -28.35549 152.80662 28102 ft 454 kts 213°
2026-05-06 23:36 -28.38503 152.79345 28524 ft 456 kts 213°
2026-05-06 23:37 -28.41459 152.78026 28957 ft 457 kts 213°
2026-05-06 23:37 -28.44424 152.76702 29440 ft 458 kts 214°
2026-05-06 23:37 -28.47386 152.75379 29965 ft 457 kts 214°
2026-05-06 23:37 -28.50342 152.74058 30452 ft 455 kts 215°
2026-05-06 23:38 -28.53281 152.72744 30904 ft 454 kts 215°
2026-05-06 23:38 -28.56213 152.71432 31386 ft 451 kts 215°
2026-05-06 23:38 -28.59132 152.70124 31878 ft 449 kts 215°
2026-05-06 23:38 -28.62025 152.68828 32467 ft 445 kts 215°
2026-05-06 23:39 -28.64898 152.67538 32948 ft 443 kts 215°
2026-05-06 23:39 -28.67758 152.66254 33376 ft 441 kts 215°
2026-05-06 23:39 -28.70611 152.64971 33792 ft 440 kts 216°
2026-05-06 23:39 -28.73456 152.63692 34181 ft 439 kts 216°
2026-05-06 23:40 -28.76287 152.62418 34508 ft 437 kts 216°
2026-05-06 23:40 -28.79113 152.61143 34823 ft 436 kts 216°
2026-05-06 23:40 -28.81934 152.59874 35139 ft 435 kts 216°
2026-05-06 23:40 -28.84732 152.58585 35477 ft 429 kts 218°
2026-05-06 23:41 -28.87349 152.57116 35763 ft 422 kts 221°
2026-05-06 23:41 -28.89985 152.55552 36041 ft 421 kts 222°
2026-05-06 23:41 -28.92538 152.54025 36128 ft 420 kts 222°
2026-05-06 23:42 -28.97707 152.50940 36120 ft 419 kts 222°
2026-05-06 23:42 -29.02889 152.47844 36118 ft 420 kts 222°
2026-05-06 23:43 -29.08057 152.44754 36145 ft 419 kts 222°
2026-05-06 23:43 -29.13228 152.41669 36119 ft 419 kts 222°
2026-05-06 23:44 -29.18393 152.38581 36121 ft 419 kts 222°
2026-05-06 23:44 -29.23523 152.35512 36120 ft 419 kts 222°
2026-05-06 23:45 -29.28683 152.32422 36118 ft 419 kts 222°
2026-05-06 23:45 -29.33853 152.29318 36131 ft 420 kts 221°
2026-05-06 23:46 -29.39030 152.26210 36135 ft 420 kts 221°
2026-05-06 23:46 -29.44218 152.23089 36131 ft 421 kts 221°
2026-05-06 23:47 -29.49410 152.19972 36132 ft 420 kts 221°
2026-05-06 23:47 -29.54589 152.16852 36146 ft 422 kts 221°
2026-05-06 23:48 -29.59787 152.13712 36140 ft 423 kts 221°
2026-05-06 23:48 -29.64993 152.10570 36140 ft 422 kts 221°
2026-05-06 23:49 -29.70248 152.07566 36132 ft 435 kts 214°
2026-05-06 23:49 -29.73214 152.06581 36136 ft 449 kts 207°
2026-05-06 23:49 -29.76273 152.05792 36170 ft 451 kts 205°
2026-05-06 23:50 -29.82414 152.04248 36137 ft 451 kts 206°
2026-05-06 23:50 -29.91600 152.01857 36130 ft 451 kts 206°
2026-05-06 23:51 -29.97732 152.00250 36130 ft 451 kts 206°
2026-05-06 23:51 -30.03855 151.98648 36139 ft 451 kts 205°
2026-05-06 23:52 -30.09985 151.97040 36134 ft 451 kts 205°
2026-05-06 23:52 -30.16102 151.95428 36131 ft 451 kts 205°
2026-05-06 23:53 -30.22194 151.93833 36132 ft 451 kts 205°
2026-05-06 23:53 -30.28316 151.92229 36129 ft 452 kts 205°
2026-05-06 23:54 -30.34307 151.90284 36144 ft 438 kts 213°
2026-05-06 23:54 -30.39949 151.87657 36141 ft 437 kts 214°
2026-05-06 23:55 -30.45583 151.85012 36162 ft 437 kts 214°
2026-05-06 23:55 -30.51239 151.82373 36138 ft 439 kts 213°
2026-05-06 23:56 -30.56902 151.79737 36141 ft 439 kts 213°
2026-05-06 23:56 -30.62570 151.77092 36144 ft 439 kts 213°
2026-05-06 23:57 -30.68227 151.74443 36182 ft 438 kts 213°
2026-05-06 23:57 -30.73904 151.71782 36148 ft 441 kts 213°
2026-05-06 23:58 -30.79554 151.69138 36138 ft 441 kts 213°
2026-05-06 23:58 -30.85241 151.66465 36151 ft 441 kts 213°
2026-05-06 23:59 -30.90931 151.63796 36183 ft 441 kts 213°
2026-05-06 23:59 -30.96622 151.61116 36148 ft 442 kts 213°
2026-05-07 00:00 -31.02324 151.58430 36152 ft 442 kts 213°
2026-05-07 00:00 -31.07070 151.56191 36166 ft 442 kts 213°
2026-05-07 00:01 -31.13736 151.53043 36196 ft 442 kts 213°
2026-05-07 00:01 -31.19444 151.50343 36167 ft 442 kts 213°
2026-05-07 00:02 -31.25136 151.47644 36149 ft 442 kts 213°
2026-05-07 00:02 -31.30839 151.44945 36172 ft 442 kts 213°
2026-05-07 00:03 -31.36509 151.42257 36195 ft 442 kts 213°
2026-05-07 00:03 -31.42257 151.39628 36169 ft 444 kts 212°
2026-05-07 00:04 -31.48035 151.37055 36161 ft 442 kts 212°
2026-05-07 00:04 -31.53688 151.34535 36143 ft 436 kts 212°
2026-05-07 00:05 -31.59422 151.31959 36180 ft 444 kts 212°
2026-05-07 00:05 -31.65199 151.29373 36152 ft 444 kts 212°
2026-05-07 00:06 -31.70965 151.26781 36141 ft 444 kts 212°
2026-05-07 00:06 -31.76741 151.24189 36148 ft 444 kts 212°
2026-05-07 00:07 -31.81521 151.22041 36153 ft 438 kts 212°
2026-05-07 00:07 -31.87204 151.19481 36146 ft 442 kts 212°
2026-05-07 00:08 -31.92962 151.16876 36150 ft 444 kts 212°
2026-05-07 00:08 -31.98741 151.14278 36129 ft 444 kts 212°
2026-05-07 00:09 -32.04526 151.11683 36142 ft 445 kts 213°
2026-05-07 00:09 -32.10305 151.09092 36136 ft 441 kts 213°
2026-05-07 00:10 -32.16017 151.06532 36132 ft 443 kts 213°
2026-05-07 00:10 -32.18887 151.05242 35935 ft 439 kts 213°
2026-05-07 00:10 -32.21758 151.03946 35672 ft 443 kts 213°
2026-05-07 00:11 -32.24623 151.02655 35416 ft 445 kts 213°
2026-05-07 00:11 -32.27516 151.01353 35172 ft 445 kts 213°
2026-05-07 00:11 -32.30414 151.00043 34931 ft 446 kts 213°
2026-05-07 00:11 -32.33302 150.98741 34549 ft 444 kts 213°
2026-05-07 00:12 -32.36191 150.97440 33945 ft 443 kts 213°
2026-05-07 00:12 -32.39062 150.96140 33180 ft 443 kts 213°
2026-05-07 00:12 -32.41912 150.94845 32438 ft 444 kts 213°
2026-05-07 00:12 -32.44803 150.93531 31686 ft 446 kts 212°
2026-05-07 00:13 -32.47760 150.92320 30962 ft 456 kts 206°
2026-05-07 00:13 -32.50945 150.91705 30298 ft 474 kts 193°
2026-05-07 00:13 -32.54292 150.91903 29557 ft 489 kts 181°
2026-05-07 00:13 -32.57667 150.92513 28812 ft 490 kts 179°
2026-05-07 00:14 -32.61024 150.93165 28117 ft 487 kts 179°
2026-05-07 00:14 -32.64358 150.93797 27441 ft 483 kts 180°
2026-05-07 00:14 -32.67676 150.94397 26791 ft 480 kts 180°
2026-05-07 00:14 -32.70968 150.94983 26083 ft 475 kts 180°
2026-05-07 00:15 -32.74214 150.95558 25422 ft 466 kts 180°
2026-05-07 00:15 -32.77389 150.96114 24774 ft 457 kts 180°
2026-05-07 00:15 -32.80510 150.96669 24113 ft 450 kts 180°
2026-05-07 00:15 -32.83583 150.97217 23447 ft 442 kts 180°
2026-05-07 00:16 -32.86595 150.97754 22737 ft 434 kts 180°
2026-05-07 00:16 -32.89553 150.98281 22074 ft 425 kts 180°
2026-05-07 00:16 -32.92453 150.98797 21477 ft 418 kts 180°
2026-05-07 00:16 -32.95317 150.99306 20852 ft 414 kts 180°
2026-05-07 00:17 -32.98154 150.99808 20270 ft 410 kts 180°
2026-05-07 00:17 -33.00954 151.00309 19707 ft 406 kts 180°
2026-05-07 00:17 -33.03731 151.00807 19158 ft 402 kts 180°
2026-05-07 00:17 -33.06491 151.01300 18634 ft 399 kts 180°
2026-05-07 00:18 -33.09239 151.01783 18087 ft 400 kts 180°
2026-05-07 00:18 -33.12000 151.02271 17524 ft 401 kts 180°
2026-05-07 00:18 -33.14761 151.02762 16966 ft 402 kts 179°
2026-05-07 00:18 -33.17522 151.03257 16452 ft 402 kts 179°
2026-05-07 00:19 -33.20296 151.03755 15918 ft 403 kts 179°
2026-05-07 00:19 -33.23065 151.04249 15403 ft 402 kts 179°
2026-05-07 00:19 -33.25806 151.04749 14901 ft 396 kts 178°
2026-05-07 00:19 -33.28516 151.05277 14380 ft 391 kts 178°
2026-05-07 00:20 -33.31182 151.05800 13872 ft 387 kts 178°
2026-05-07 00:20 -33.33823 151.06316 13331 ft 382 kts 178°
2026-05-07 00:20 -33.36420 151.06817 12840 ft 376 kts 178°
2026-05-07 00:20 -33.38983 151.07313 12362 ft 370 kts 178°
2026-05-07 00:21 -33.41482 151.07792 11902 ft 367 kts 178°
2026-05-07 00:21 -33.43997 151.08273 11434 ft 366 kts 178°
2026-05-07 00:21 -33.46511 151.08750 11012 ft 364 kts 177°
2026-05-07 00:21 -33.48976 151.09228 10755 ft 353 kts 177°
2026-05-07 00:22 -33.51356 151.09693 10575 ft 341 kts 178°
2026-05-07 00:22 -33.53656 151.10137 10319 ft 328 kts 178°
2026-05-07 00:22 -33.55866 151.10564 10097 ft 315 kts 178°
2026-05-07 00:22 -33.57996 151.10973 9794 ft 308 kts 178°
2026-05-07 00:23 -33.60099 151.11371 9360 ft 305 kts 178°
2026-05-07 00:23 -33.62181 151.11767 8914 ft 302 kts 178°
2026-05-07 00:23 -33.64244 151.12173 8588 ft 298 kts 178°
2026-05-07 00:23 -33.66281 151.12576 8274 ft 296 kts 177°
2026-05-07 00:24 -33.68310 151.12977 8023 ft 293 kts 177°
2026-05-07 00:24 -33.69997 151.13506 7862 ft 299 kts 161°
2026-05-07 00:24 -33.71683 151.15010 7723 ft 307 kts 138°
2026-05-07 00:24 -33.73143 151.16876 7605 ft 306 kts 136°
2026-05-07 00:25 -33.74589 151.18753 7473 ft 304 kts 136°
2026-05-07 00:25 -33.76035 151.20597 7331 ft 303 kts 137°
2026-05-07 00:25 -33.77493 151.22433 7205 ft 303 kts 138°
2026-05-07 00:25 -33.78948 151.24256 7084 ft 301 kts 138°
2026-05-07 00:26 -33.80400 151.26065 6964 ft 300 kts 138°
2026-05-07 00:26 -33.81845 151.27851 6836 ft 297 kts 140°
2026-05-07 00:26 -33.83523 151.29192 6698 ft 285 kts 166°
2026-05-07 00:26 -33.85418 151.29772 6580 ft 278 kts 175°
2026-05-07 00:27 -33.87308 151.30223 6466 ft 277 kts 175°
2026-05-07 00:27 -33.89203 151.30683 6339 ft 277 kts 175°
2026-05-07 00:27 -33.91062 151.31147 6225 ft 276 kts 174°
2026-05-07 00:27 -33.92940 151.31630 6133 ft 276 kts 175°
2026-05-07 00:28 -33.94812 151.32117 6030 ft 276 kts 175°
2026-05-07 00:28 -33.96687 151.32603 5899 ft 272 kts 175°
2026-05-07 00:28 -33.98529 151.33083 5518 ft 270 kts 175°
2026-05-07 00:28 -34.00365 151.33562 5121 ft 270 kts 175°
2026-05-07 00:29 -34.02204 151.34043 4716 ft 270 kts 175°
2026-05-07 00:29 -34.04029 151.34522 4350 ft 268 kts 175°
2026-05-07 00:30 -34.09405 151.35934 3358 ft 260 kts 176°
2026-05-07 00:30 -34.11165 151.36395 3057 ft 257 kts 175°
2026-05-07 00:30 -34.12879 151.36845 2874 ft 247 kts 175°
2026-05-07 00:30 -34.14516 151.37028 2730 ft 224 kts 196°
2026-05-07 00:31 -34.15846 151.36350 2598 ft 197 kts 226°
2026-05-07 00:31 -34.16544 151.35063 2464 ft 177 kts 258°
2026-05-07 00:31 -34.16721 151.33656 2331 ft 171 kts 263°
2026-05-07 00:31 -34.16870 151.32221 2204 ft 170 kts 263°
2026-05-07 00:32 -34.17014 151.30802 2084 ft 175 kts 263°
2026-05-07 00:32 -34.17163 151.29342 1990 ft 174 kts 263°
2026-05-07 00:32 -34.17013 151.27912 1982 ft 177 kts 292°
2026-05-07 00:32 -34.16188 151.26755 2000 ft 187 kts 311°
2026-05-07 00:33 -34.15245 151.25743 1997 ft 173 kts 312°
2026-05-07 00:33 -34.14335 151.24864 2049 ft 166 kts 313°
2026-05-07 00:33 -34.13429 151.24024 2024 ft 164 kts 313°
2026-05-07 00:33 -34.12354 151.23374 2012 ft 180 kts 334°
2026-05-07 00:34 -34.11120 151.23025 2016 ft 184 kts 342°
2026-05-07 00:34 -34.09863 151.22709 2010 ft 185 kts 340°
2026-05-07 00:34 -34.08630 151.22393 1995 ft 173 kts 340°
2026-05-07 00:34 -34.07499 151.22097 1981 ft 164 kts 340°
2026-05-07 00:35 -34.06386 151.21806 1898 ft 163 kts 339°
2026-05-07 00:35 -34.05280 151.21517 1705 ft 162 kts 340°
2026-05-07 00:35 -34.04232 151.21246 1519 ft 141 kts 339°
2026-05-07 00:35 -34.03320 151.21006 1317 ft 132 kts 338°
2026-05-07 00:36 -34.02422 151.20771 1124 ft 132 kts 340°
2026-05-07 00:36 -34.01528 151.20537 943 ft 131 kts 340°
2026-05-07 00:36 -34.00639 151.20302 783 ft 130 kts 339°
2026-05-07 00:36 -33.99746 151.20080 614 ft 130 kts 339°
2026-05-07 00:37 -33.98873 151.19864 411 ft 128 kts 340°
2026-05-07 00:37 -33.98008 151.19638 241 ft 130 kts 338°
2026-05-07 00:37 -33.97126 151.19393 89 ft 130 kts 337°
2026-05-07 00:37 -33.96281 151.19170 33 ft 119 kts 339°
2026-05-07 00:38 -33.95705 151.19023 31 ft 46 kts 341°
2026-05-07 00:38 -33.95599 151.18984 30 ft 6 kts 345°
2026-05-07 00:38 -33.95549 151.18968 31 ft 9 kts 345°
2026-05-07 00:38 -33.95481 151.18946 30 ft 12 kts 345°
2026-05-07 00:39 -33.95396 151.18916 29 ft 14 kts 338°
2026-05-07 00:39 -33.95305 151.18857 30 ft 16 kts 324°
2026-05-07 00:39 -33.95208 151.18761 34 ft 18 kts 317°
2026-05-07 00:39 -33.95125 151.18671 35 ft 13 kts 318°
2026-05-07 00:40 -33.95092 151.18560 36 ft 16 kts 266°
2026-05-07 00:40 -33.95116 151.18419 36 ft 18 kts 256°
2026-05-07 00:40 -33.95146 151.18260 36 ft 20 kts 257°
2026-05-07 00:40 -33.95169 151.18129 36 ft 16 kts 258°
2026-05-07 00:41 -33.95185 151.17999 36 ft 13 kts 285°
2026-05-07 00:41 -33.95120 151.17947 36 ft 13 kts 349°
2026-05-07 00:41 -33.95021 151.17923 36 ft 16 kts 348°
2026-05-07 00:41 -33.94907 151.17894 35 ft 18 kts 348°
2026-05-07 00:42 -33.94781 151.17861 35 ft 20 kts 348°
2026-05-07 00:42 -33.94640 151.17824 35 ft 22 kts 347°
2026-05-07 00:42 -33.94484 151.17782 35 ft 24 kts 344°
2026-05-07 00:42 -33.94319 151.17729 35 ft 26 kts 347°